Location: Unspecified
(0.0000°N, 0.0000°E)
Time: 08:59:19
(UTC+00:00)

Vanguard 3 - Visible Passes

Search period start: 25 February 2017 00:00
Search period end: 07 March 2017 00:00
Orbit: 508 x 3265 km, 33.3° (Epoch: 23 February)

Date Brightness Start Highest point End Pass type
(mag) Time Alt. Az. Time Alt. Az. Time Alt. Az.
03 Mar 9.9 20:46:13 10° SSW 20:46:17 10° SSW 20:46:17 10° SSW visible
04 Mar 9.6 19:33:55 10° S 19:34:52 10° SSE 19:35:46 10° SSE visible
05 Mar 9.4 20:29:29 10° SSW 20:32:12 18° S 20:32:12 18° S visible
06 Mar 9.3 19:15:19 10° SSW 19:20:03 16° SSE 19:22:54 12° SE visible
